User: anonymous   Login
Location: Ernsee
(50.8780°N, 12.0389°E)
Time: 23:26:49
(UTC+00:00)
Language:

Cosmos 1076 Rocket - Orbit

View from above orbital plane
View from above orbital plane
View from above satellite
View from above satellite

Ground track
Ground track

The orbit data is extracted from the following two-line orbital elements,

1 11267U 79011B   21138.61141164  .00000115  00000-0  95236-5 0  9991
2 11267  82.5229 317.8791 0017746 144.6258 215.6142 14.89020569267266
Epoch (UTC): 18 May 2021 14:40:25
Eccentricity: 0.0017746
inclination: 82.5229°
perigee height: 588 km
apogee height: 613 km
right ascension of ascending node: 317.8791°
argument of perigee: 144.6258°
revolutions per day: 14.89020569
mean anomaly at epoch: 215.6142°
orbit number at epoch: 26726

The dashed part of the orbit path shows where the satellite is in the earth's shadow,  

DLR